TKJ4180 LTAC-LTCS

Flight info

Callsign TKJ4180
Flight time 1h 0m
Altitude 35000
Route YUCEL UA17 BELSU UL605 RATSI UA17 REMPO UL605 GAZ/N0424F270 W74 SURUC
Aircraft A21N/M-SDE3FGHIRWY/LB1

Departure

Time 2026-05-04 14:02
Airport Esenboğa International Airport (LTAC)

Arrival

Time 2026-05-04 15:03
Airport Şanlıurfa GAP Airport (LTCS)
Time Latitude Longitude Altitude Speed Heading
2026-05-04 13:48 40.11673 32.99286 3127 ft 0 kts 160°
2026-05-04 13:56 40.11673 32.99285 3130 ft 0 kts 160°
2026-05-04 13:56 40.11678 32.99284 3130 ft 3 kts 160°
2026-05-04 13:56 40.11727 32.99261 3129 ft 3 kts 166°
2026-05-04 13:57 40.11748 32.99268 3130 ft 3 kts 219°
2026-05-04 13:57 40.11758 32.99287 3130 ft 0 kts 253°
2026-05-04 13:59 40.11756 32.99282 3130 ft 1 kts 253°
2026-05-04 13:59 40.11751 32.99262 3130 ft 3 kts 251°
2026-05-04 13:59 40.11716 32.99168 3128 ft 8 kts 241°
2026-05-04 14:00 40.11683 32.99100 3127 ft 9 kts 236°
2026-05-04 14:00 40.11644 32.98920 3124 ft 12 kts 299°
2026-05-04 14:00 40.11699 32.98822 3122 ft 13 kts 306°
2026-05-04 14:01 40.11758 32.98714 3120 ft 15 kts 306°
2026-05-04 14:01 40.11820 32.98603 3119 ft 15 kts 306°
2026-05-04 14:01 40.12006 32.98582 3118 ft 37 kts 36°
2026-05-04 14:02 40.12427 32.98984 3121 ft 108 kts 35°
2026-05-04 14:02 40.13221 32.99742 3139 ft 164 kts 31°
2026-05-04 14:02 40.14157 33.00653 3687 ft 166 kts 34°
2026-05-04 14:02 40.15036 33.01599 4422 ft 163 kts 36°
2026-05-04 14:03 40.15891 33.02584 5028 ft 164 kts 36°
2026-05-04 14:03 40.16817 33.03572 5371 ft 177 kts 34°
2026-05-04 14:03 40.17838 33.04625 5697 ft 192 kts 34°
2026-05-04 14:03 40.18951 33.05769 6003 ft 210 kts 34°
2026-05-04 14:04 40.20702 33.09268 6662 ft 261 kts 83°
2026-05-04 14:04 40.20393 33.11723 7175 ft 279 kts 114°
2026-05-04 14:04 40.19203 33.13876 7804 ft 289 kts 129°
2026-05-04 14:05 40.16615 33.17992 9412 ft 292 kts 127°
2026-05-04 14:05 40.15328 33.20099 10178 ft 294 kts 127°
2026-05-04 14:05 40.14051 33.22205 10609 ft 308 kts 127°
2026-05-04 14:06 40.12688 33.24459 10946 ft 325 kts 127°
2026-05-04 14:06 40.11261 33.26820 11397 ft 336 kts 127°
2026-05-04 14:06 40.09816 33.29208 12108 ft 339 kts 127°
2026-05-04 14:06 40.08338 33.31651 12605 ft 339 kts 127°
2026-05-04 14:07 40.06878 33.34063 12799 ft 340 kts 128°
2026-05-04 14:07 40.05416 33.36475 12807 ft 339 kts 128°
2026-05-04 14:07 40.03838 33.38727 12784 ft 339 kts 142°
2026-05-04 14:07 40.01726 33.40041 12793 ft 339 kts 166°
2026-05-04 14:08 39.99351 33.40152 12853 ft 344 kts 190°
2026-05-04 14:08 39.97120 33.39018 13366 ft 349 kts 211°
2026-05-04 14:08 39.95112 33.37293 14191 ft 347 kts 212°
2026-05-04 14:08 39.93096 33.35578 14852 ft 350 kts 212°
2026-05-04 14:09 39.89059 33.32403 15873 ft 359 kts 200°
2026-05-04 14:09 39.86613 33.31856 16412 ft 361 kts 177°
2026-05-04 14:10 39.82058 33.34295 17532 ft 363 kts 140°
2026-05-04 14:10 39.80048 33.36364 18078 ft 368 kts 140°
2026-05-04 14:10 39.78041 33.38414 18602 ft 372 kts 140°
2026-05-04 14:10 39.75996 33.40485 19132 ft 375 kts 141°
2026-05-04 14:11 39.73940 33.42553 19628 ft 380 kts 141°
2026-05-04 14:11 39.69706 33.46786 20639 ft 387 kts 141°
2026-05-04 14:11 39.67548 33.48938 21159 ft 390 kts 141°
2026-05-04 14:12 39.65399 33.51080 21617 ft 394 kts 141°
2026-05-04 14:12 39.63224 33.53245 22071 ft 398 kts 141°
2026-05-04 14:12 39.58852 33.57773 22974 ft 405 kts 136°
2026-05-04 14:13 39.56855 33.60337 23399 ft 408 kts 130°
2026-05-04 14:13 39.55024 33.63122 23833 ft 410 kts 127°
2026-05-04 14:13 39.53229 33.66020 24250 ft 413 kts 127°
2026-05-04 14:13 39.51439 33.68932 24609 ft 417 kts 127°
2026-05-04 14:14 39.49615 33.71889 24978 ft 420 kts 127°
2026-05-04 14:14 39.45962 33.77772 25708 ft 424 kts 127°
2026-05-04 14:14 39.44092 33.80730 26046 ft 426 kts 128°
2026-05-04 14:15 39.40284 33.86658 26643 ft 431 kts 128°
2026-05-04 14:15 39.36450 33.92605 27199 ft 434 kts 129°
2026-05-04 14:16 39.32555 33.98646 27697 ft 439 kts 129°
2026-05-04 14:16 39.30604 34.01667 27946 ft 441 kts 129°
2026-05-04 14:17 39.26658 34.07766 28425 ft 445 kts 129°
2026-05-04 14:17 39.24696 34.10795 28672 ft 447 kts 129°
2026-05-04 14:17 39.20699 34.16954 29137 ft 450 kts 129°
2026-05-04 14:18 39.18686 34.20056 29374 ft 452 kts 129°
2026-05-04 14:18 39.14669 34.26350 29812 ft 455 kts 127°
2026-05-04 14:19 39.10968 34.32904 30235 ft 458 kts 126°
2026-05-04 14:19 39.09042 34.36221 30451 ft 459 kts 128°
2026-05-04 14:19 39.07045 34.39358 30715 ft 458 kts 130°
2026-05-04 14:19 39.05023 34.42494 30972 ft 457 kts 130°
2026-05-04 14:20 39.02992 34.45635 31205 ft 457 kts 130°
2026-05-04 14:20 39.00964 34.48768 31426 ft 457 kts 130°
2026-05-04 14:20 38.98930 34.51906 31655 ft 457 kts 130°
2026-05-04 14:21 38.94869 34.58163 32086 ft 456 kts 130°
2026-05-04 14:21 38.92841 34.61287 32285 ft 456 kts 130°
2026-05-04 14:21 38.90812 34.64407 32464 ft 456 kts 130°
2026-05-04 14:21 38.88756 34.67567 32646 ft 456 kts 130°
2026-05-04 14:22 38.86738 34.70663 32824 ft 456 kts 130°
2026-05-04 14:22 38.84702 34.73783 33004 ft 456 kts 130°
2026-05-04 14:22 38.82679 34.76882 33158 ft 456 kts 130°
2026-05-04 14:22 38.80630 34.80019 33317 ft 457 kts 131°
2026-05-04 14:23 38.76540 34.86268 33629 ft 459 kts 131°
2026-05-04 14:23 38.74501 34.89379 33802 ft 459 kts 131°
2026-05-04 14:23 38.72435 34.92530 33951 ft 460 kts 131°
2026-05-04 14:24 38.70386 34.95650 34077 ft 461 kts 131°
2026-05-04 14:24 38.68315 34.98801 34224 ft 462 kts 131°
2026-05-04 14:24 38.66259 35.01925 34367 ft 463 kts 131°
2026-05-04 14:24 38.64180 35.05078 34505 ft 463 kts 131°
2026-05-04 14:25 38.62102 35.08229 34634 ft 464 kts 131°
2026-05-04 14:25 38.57954 35.14509 34780 ft 466 kts 131°
2026-05-04 14:25 38.55878 35.17646 34787 ft 466 kts 131°
2026-05-04 14:26 38.51684 35.23967 34786 ft 465 kts 132°
2026-05-04 14:26 38.47465 35.30162 34793 ft 466 kts 133°
2026-05-04 14:27 38.43185 35.36402 34784 ft 465 kts 133°
2026-05-04 14:27 38.38939 35.42587 34779 ft 465 kts 133°
2026-05-04 14:28 38.34682 35.48784 34768 ft 466 kts 133°
2026-05-04 14:28 38.30440 35.54946 34771 ft 466 kts 133°
2026-05-04 14:29 38.21879 35.67346 34794 ft 466 kts 134°
2026-05-04 14:30 38.17610 35.73512 34805 ft 466 kts 134°
2026-05-04 14:31 38.11208 35.82740 34803 ft 466 kts 134°
2026-05-04 14:32 38.02605 35.95100 34811 ft 467 kts 134°
2026-05-04 14:32 37.98323 36.01232 34818 ft 468 kts 134°
2026-05-04 14:33 37.94001 36.07410 34819 ft 467 kts 134°
2026-05-04 14:33 37.89689 36.13563 34817 ft 468 kts 134°
2026-05-04 14:34 37.85383 36.19690 34813 ft 468 kts 134°
2026-05-04 14:34 37.81067 36.25840 34809 ft 468 kts 134°
2026-05-04 14:35 37.76769 36.31964 34802 ft 468 kts 135°
2026-05-04 14:35 37.72448 36.38105 34803 ft 469 kts 135°
2026-05-04 14:36 37.68121 36.44239 34803 ft 469 kts 135°
2026-05-04 14:36 37.63789 36.50374 34797 ft 469 kts 135°
2026-05-04 14:37 37.59445 36.56516 34802 ft 469 kts 135°
2026-05-04 14:37 37.55111 36.62626 34493 ft 468 kts 135°
2026-05-04 14:37 37.53122 36.65841 34261 ft 470 kts 126°
2026-05-04 14:38 37.51568 36.69509 34033 ft 473 kts 116°
2026-05-04 14:38 37.50478 36.73385 33814 ft 474 kts 110°
2026-05-04 14:38 37.49551 36.77351 33594 ft 473 kts 109°
2026-05-04 14:38 37.48650 36.81308 33374 ft 472 kts 109°
2026-05-04 14:39 37.47734 36.85302 33060 ft 474 kts 109°
2026-05-04 14:39 37.46815 36.89264 32660 ft 473 kts 110°
2026-05-04 14:39 37.45889 36.93207 32263 ft 471 kts 110°
2026-05-04 14:40 37.44014 37.01104 31446 ft 482 kts 110°
2026-05-04 14:40 37.43048 37.05144 31029 ft 484 kts 110°
2026-05-04 14:40 37.42079 37.09189 30617 ft 484 kts 111°
2026-05-04 14:40 37.41109 37.13239 30159 ft 484 kts 111°
2026-05-04 14:41 37.40139 37.17265 29658 ft 482 kts 111°
2026-05-04 14:41 37.39167 37.21301 29147 ft 482 kts 111°
2026-05-04 14:41 37.37235 37.29294 28020 ft 481 kts 111°
2026-05-04 14:42 37.35297 37.37289 26881 ft 475 kts 111°
2026-05-04 14:42 37.34342 37.41226 26318 ft 470 kts 111°
2026-05-04 14:42 37.33394 37.45123 25738 ft 466 kts 111°
2026-05-04 14:43 37.32454 37.48983 25157 ft 462 kts 111°
2026-05-04 14:43 37.31518 37.52816 24561 ft 458 kts 111°
2026-05-04 14:43 37.30592 37.56601 23956 ft 454 kts 111°
2026-05-04 14:43 37.29671 37.60364 23304 ft 450 kts 111°
2026-05-04 14:44 37.28766 37.64049 22664 ft 446 kts 111°
2026-05-04 14:44 37.27855 37.67767 22010 ft 443 kts 112°
2026-05-04 14:44 37.26951 37.71439 21373 ft 439 kts 112°
2026-05-04 14:44 37.26058 37.75065 20730 ft 436 kts 112°
2026-05-04 14:45 37.25166 37.78680 20086 ft 432 kts 112°
2026-05-04 14:45 37.24280 37.82252 19455 ft 428 kts 112°
2026-05-04 14:45 37.23396 37.85809 18828 ft 425 kts 112°
2026-05-04 14:45 37.22527 37.89313 18210 ft 421 kts 112°
2026-05-04 14:46 37.21669 37.92762 17595 ft 418 kts 112°
2026-05-04 14:46 37.20811 37.96209 16998 ft 414 kts 112°
2026-05-04 14:46 37.19956 37.99642 16375 ft 411 kts 112°
2026-05-04 14:46 37.19108 38.03040 15775 ft 408 kts 112°
2026-05-04 14:47 37.18269 38.06402 15177 ft 405 kts 112°
2026-05-04 14:47 37.17430 38.09755 14566 ft 402 kts 112°
2026-05-04 14:47 37.16598 38.13079 13967 ft 399 kts 112°
2026-05-04 14:47 37.15772 38.16376 13366 ft 397 kts 112°
2026-05-04 14:48 37.14949 38.19653 12754 ft 394 kts 112°
2026-05-04 14:48 37.14126 38.22920 12150 ft 391 kts 112°
2026-05-04 14:48 37.13318 38.26138 11801 ft 381 kts 112°
2026-05-04 14:48 37.12540 38.29249 11637 ft 367 kts 112°
2026-05-04 14:49 37.11791 38.32235 11476 ft 354 kts 112°
2026-05-04 14:49 37.11075 38.35082 11323 ft 341 kts 112°
2026-05-04 14:49 37.10372 38.37861 11168 ft 329 kts 113°
2026-05-04 14:49 37.09691 38.40547 11022 ft 317 kts 113°
2026-05-04 14:50 37.09035 38.43129 10879 ft 306 kts 113°
2026-05-04 14:50 37.08409 38.45598 10862 ft 292 kts 113°
2026-05-04 14:50 37.07790 38.48021 10873 ft 293 kts 113°
2026-05-04 14:50 37.07283 38.50179 10868 ft 298 kts 105°
2026-05-04 14:51 37.07301 38.52900 10802 ft 310 kts 82°
2026-05-04 14:51 37.08138 38.55455 10591 ft 314 kts 59°
2026-05-04 14:51 37.09677 38.57519 10274 ft 317 kts 40°
2026-05-04 14:51 37.11453 38.59206 9917 ft 312 kts 37°
2026-05-04 14:52 37.13224 38.60831 9521 ft 310 kts 37°
2026-05-04 14:52 37.14978 38.62456 9086 ft 309 kts 37°
2026-05-04 14:52 37.16726 38.64106 8711 ft 306 kts 38°
2026-05-04 14:52 37.18443 38.65746 8406 ft 303 kts 39°
2026-05-04 14:53 37.20124 38.67364 8122 ft 295 kts 40°
2026-05-04 14:53 37.21754 38.68942 7838 ft 287 kts 40°
2026-05-04 14:53 37.23352 38.70498 7545 ft 281 kts 40°
2026-05-04 14:53 37.24911 38.72018 7210 ft 276 kts 40°
2026-05-04 14:54 37.26449 38.73517 6879 ft 273 kts 40°
2026-05-04 14:54 37.27963 38.74993 6550 ft 269 kts 41°
2026-05-04 14:54 37.29471 38.76463 6215 ft 267 kts 41°
2026-05-04 14:54 37.30954 38.77915 5884 ft 265 kts 40°
2026-05-04 14:55 37.32428 38.79361 5548 ft 263 kts 40°
2026-05-04 14:55 37.33901 38.80805 5221 ft 261 kts 40°
2026-05-04 14:55 37.35331 38.82199 5163 ft 257 kts 38°
2026-05-04 14:55 37.36874 38.83527 5145 ft 268 kts 36°
2026-05-04 14:56 37.38432 38.84907 5116 ft 270 kts 37°
2026-05-04 14:56 37.39977 38.86324 5094 ft 274 kts 38°
2026-05-04 14:56 37.41528 38.87745 5027 ft 274 kts 38°
2026-05-04 14:56 37.43103 38.89185 4924 ft 272 kts 36°
2026-05-04 14:57 37.44765 38.90455 4824 ft 272 kts 29°
2026-05-04 14:57 37.46503 38.91520 4724 ft 272 kts 26°
2026-05-04 14:57 37.48244 38.92506 4622 ft 269 kts 23°
2026-05-04 14:57 37.49969 38.93378 4516 ft 259 kts 21°
2026-05-04 14:58 37.51669 38.94171 4407 ft 248 kts 21°
2026-05-04 14:58 37.53284 38.94914 4298 ft 238 kts 20°
2026-05-04 14:58 37.54843 38.95656 4223 ft 228 kts 20°
2026-05-04 14:58 37.56305 38.96370 4207 ft 212 kts 27°
2026-05-04 14:59 37.57385 38.97539 4166 ft 194 kts 66°
2026-05-04 14:59 37.57622 38.99185 4221 ft 187 kts 105°
2026-05-04 14:59 37.55790 39.01020 4352 ft 174 kts 187°
2026-05-04 15:00 37.54648 39.00550 4361 ft 163 kts 207°
2026-05-04 15:00 37.53690 38.99756 4422 ft 158 kts 215°
2026-05-04 15:00 37.52854 38.98900 4405 ft 153 kts 219°
2026-05-04 15:01 37.51252 38.97104 4041 ft 152 kts 221°
2026-05-04 15:01 37.50457 38.96202 3830 ft 151 kts 220°
2026-05-04 15:01 37.49661 38.95304 3634 ft 151 kts 221°
2026-05-04 15:01 37.48877 38.94383 3404 ft 150 kts 222°
2026-05-04 15:02 37.48085 38.93479 3188 ft 149 kts 221°
2026-05-04 15:02 37.47276 38.92606 2991 ft 149 kts 223°
2026-05-04 15:02 37.46493 38.91722 2792 ft 147 kts 221°
2026-05-04 15:02 37.45730 38.90872 2712 ft 133 kts 221°
2026-05-04 15:03 37.45194 38.90264 2703 ft 56 kts 222°
2026-05-04 15:03 37.44990 38.90054 2701 ft 24 kts 208°
2026-05-04 15:03 37.44877 38.90121 2696 ft 18 kts 136°
2026-05-04 15:03 37.44779 38.90257 2687 ft 21 kts 130°
2026-05-04 15:04 37.44665 38.90334 2683 ft 14 kts 157°
2026-05-04 15:04 37.44610 38.90393 2684 ft 6 kts 132°
2026-05-04 15:04 37.44600 38.90408 2684 ft 0 kts 130°